TimeCDT,TemperatureF,Dew PointF,Humidity,Sea Level PressureIn,VisibilityMPH,Wind Direction,Wind SpeedMPH,Gust SpeedMPH,PrecipitationIn,Events,Conditions,WindDirDegrees,DateUTC
12:15 AM,73.8,70.2,88,29.90,10.0,SSE,3.5,-,N/A,,Scattered Clouds,150,2013-08-07 05:15:00
12:35 AM,73.4,69.8,88,29.89,10.0,SSE,3.5,-,N/A,,Clear,150,2013-08-07 05:35:00
12:55 AM,73.0,69.4,88,29.88,10.0,Calm,Calm,-,N/A,,Clear,0,2013-08-07 05:55:00
1:15 AM,73.2,69.8,89,29.87,10.0,South,3.5,-,N/A,,Clear,180,2013-08-07 06:15:00
1:35 AM,73.4,69.8,88,29.86,10.0,South,3.5,-,N/A,,Clear,170,2013-08-07 06:35:00
1:55 AM,72.1,69.1,90,29.85,10.0,Calm,Calm,-,N/A,,Clear,0,2013-08-07 06:55:00
2:15 AM,71.6,68.9,91,29.85,10.0,Calm,Calm,-,N/A,,Clear,0,2013-08-07 07:15:00
2:35 AM,71.2,68.9,92,29.84,10.0,SSE,3.5,-,N/A,,Clear,160,2013-08-07 07:35:00
2:55 AM,71.6,69.3,92,29.83,7.0,SSE,5.8,-,N/A,,Clear,160,2013-08-07 07:55:00
3:15 AM,72.5,70.0,92,29.83,10.0,SSE,5.8,-,N/A,,Clear,150,2013-08-07 08:15:00
3:35 AM,72.9,70.3,92,29.82,10.0,South,5.8,-,N/A,,Clear,170,2013-08-07 08:35:00
3:55 AM,73.0,70.7,92,29.84,10.0,South,5.8,-,N/A,,Clear,190,2013-08-07 08:55:00
4:15 AM,72.7,70.2,92,29.84,10.0,SSW,3.5,-,N/A,,Clear,200,2013-08-07 09:15:00
4:35 AM,73.0,70.7,92,29.84,10.0,Calm,Calm,-,N/A,,Clear,0,2013-08-07 09:35:00
4:55 AM,73.4,70.7,91,29.84,10.0,Calm,Calm,-,N/A,,Clear,0,2013-08-07 09:55:00
5:15 AM,72.3,69.8,92,29.84,7.0,NW,3.5,-,N/A,,Scattered Clouds,310,2013-08-07 10:15:00
5:35 AM,72.3,69.8,92,29.83,7.0,Calm,Calm,-,N/A,,Scattered Clouds,0,2013-08-07 10:35:00
5:55 AM,71.6,69.3,92,29.84,4.0,Calm,Calm,-,N/A,,Clear,0,2013-08-07 10:55:00
6:15 AM,71.2,69.1,93,29.86,4.0,Calm,Calm,-,N/A,,Clear,0,2013-08-07 11:15:00
6:35 AM,71.6,69.6,93,29.88,2.0,South,3.5,-,N/A,,Mostly Cloudy,190,2013-08-07 11:35:00
6:55 AM,73.0,71.1,93,29.89,5.0,South,3.5,-,N/A,,Mostly Cloudy,170,2013-08-07 11:55:00
7:15 AM,72.9,70.7,93,29.89,4.0,South,3.5,-,N/A,,Mostly Cloudy,180,2013-08-07 12:15:00
7:35 AM,73.2,70.9,92,29.89,5.0,SSW,6.9,-,N/A,,Scattered Clouds,200,2013-08-07 12:35:00
7:55 AM,73.8,71.6,93,29.88,5.0,South,5.8,-,N/A,,Scattered Clouds,190,2013-08-07 12:55:00
8:15 AM,74.3,71.8,92,29.87,7.0,SSW,8.1,-,N/A,,Scattered Clouds,210,2013-08-07 13:15:00
8:35 AM,74.7,71.6,90,29.87,10.0,SSW,9.2,-,N/A,,Scattered Clouds,210,2013-08-07 13:35:00
8:55 AM,75.2,71.8,89,29.87,10.0,SSW,8.1,-,N/A,,Scattered Clouds,210,2013-08-07 13:55:00
9:15 AM,76.1,71.8,86,29.88,10.0,SW,10.4,-,N/A,,Scattered Clouds,220,2013-08-07 14:15:00
9:35 AM,76.8,71.8,84,29.88,10.0,SW,9.2,-,N/A,,Scattered Clouds,230,2013-08-07 14:35:00
9:55 AM,77.4,71.2,81,29.89,10.0,SW,13.8,18.4,N/A,,Overcast,230,2013-08-07 14:55:00
10:15 AM,78.3,71.2,79,29.89,10.0,SW,8.1,-,N/A,,Overcast,230,2013-08-07 15:15:00
10:35 AM,79.0,70.7,76,29.89,10.0,WSW,9.2,-,N/A,,Mostly Cloudy,240,2013-08-07 15:35:00
10:55 AM,79.7,70.9,74,29.89,10.0,West,6.9,-,N/A,,Mostly Cloudy,270,2013-08-07 15:55:00
11:15 AM,80.1,71.4,75,29.90,10.0,WSW,9.2,-,N/A,,Overcast,250,2013-08-07 16:15:00
11:35 AM,80.1,71.6,75,29.90,10.0,WSW,5.8,-,N/A,,Overcast,250,2013-08-07 16:35:00
11:55 AM,80.6,71.6,74,29.90,10.0,West,4.6,-,N/A,,Mostly Cloudy,260,2013-08-07 16:55:00
12:15 PM,80.8,71.8,74,29.90,10.0,WSW,5.8,-,N/A,,Mostly Cloudy,250,2013-08-07 17:15:00
12:35 PM,81.5,72.5,74,29.90,10.0,WSW,4.6,-,N/A,,Mostly Cloudy,240,2013-08-07 17:35:00
12:55 PM,81.9,72.3,73,29.89,10.0,Calm,Calm,-,N/A,,Scattered Clouds,0,2013-08-07 17:55:00
1:15 PM,82.0,72.5,73,29.89,10.0,West,4.6,-,N/A,,Scattered Clouds,260,2013-08-07 18:15:00
1:35 PM,82.4,72.7,72,29.89,10.0,WSW,3.5,-,N/A,,Scattered Clouds,250,2013-08-07 18:35:00
1:55 PM,82.6,72.5,71,29.89,10.0,WNW,3.5,-,N/A,,Mostly Cloudy,290,2013-08-07 18:55:00
2:15 PM,83.5,73.6,72,29.89,10.0,WNW,4.6,-,N/A,,Overcast,290,2013-08-07 19:15:00
2:35 PM,83.1,73.2,72,29.88,10.0,West,5.8,-,N/A,,Overcast,270,2013-08-07 19:35:00
2:55 PM,83.5,73.8,72,29.87,10.0,SSW,4.6,-,N/A,,Scattered Clouds,200,2013-08-07 19:55:00
3:15 PM,84.7,74.1,70,29.87,10.0,South,5.8,-,N/A,,Scattered Clouds,190,2013-08-07 20:15:00
3:35 PM,85.5,74.3,69,29.86,10.0,SSW,6.9,-,N/A,,Scattered Clouds,200,2013-08-07 20:35:00
3:55 PM,85.3,73.9,69,29.88,10.0,Calm,Calm,-,N/A,,Mostly Cloudy,0,2013-08-07 20:55:00
4:15 PM,84.9,73.2,68,29.87,10.0,SW,3.5,-,N/A,,Mostly Cloudy,230,2013-08-07 21:15:00
4:35 PM,84.9,73.6,69,29.87,10.0,West,4.6,-,N/A,Thunderstorm,Mostly Cloudy,270,2013-08-07 21:35:00
4:55 PM,84.0,74.5,73,29.87,10.0,NW,3.5,-,N/A,Thunderstorm,Scattered Clouds,320,2013-08-07 21:55:00
5:15 PM,77.9,70.9,79,29.89,7.0,NW,10.4,-,N/A,Rain,Rain,320,2013-08-07 22:15:00
5:35 PM,74.8,71.1,88,29.88,10.0,Calm,Calm,-,0.11,Rain,Light Rain,0,2013-08-07 22:35:00
5:55 PM,75.6,71.8,88,29.89,10.0,Calm,Calm,-,0.11,Rain-Thunderstorm,Light Thunderstorms and Rain,0,2013-08-07 22:55:00
6:15 PM,75.2,71.6,89,29.88,10.0,Calm,Calm,-,0.01,Thunderstorm,Scattered Clouds,0,2013-08-07 23:15:00
6:35 PM,74.8,72.0,91,29.90,7.0,Calm,Calm,-,0.01,Thunderstorm,Scattered Clouds,0,2013-08-07 23:35:00
6:55 PM,74.8,72.1,91,29.91,5.0,Calm,Calm,-,0.01,,Clear,0,2013-08-07 23:55:00
7:15 PM,75.2,72.5,91,29.91,7.0,Calm,Calm,-,N/A,,Clear,0,2013-08-08 00:15:00
7:35 PM,75.6,72.9,91,29.91,7.0,Calm,Calm,-,N/A,,Scattered Clouds,0,2013-08-08 00:35:00
7:55 PM,76.3,72.7,89,29.91,10.0,Calm,Calm,-,N/A,,Scattered Clouds,0,2013-08-08 00:55:00
8:15 PM,76.3,72.5,88,29.91,10.0,Calm,Calm,-,N/A,,Overcast,0,2013-08-08 01:15:00
8:35 PM,76.1,73.0,90,29.92,10.0,West,3.5,-,N/A,,Overcast,260,2013-08-08 01:35:00
8:55 PM,76.1,72.7,89,29.92,10.0,Calm,Calm,-,N/A,,Overcast,0,2013-08-08 01:55:00
9:15 PM,76.1,72.5,89,29.93,10.0,WNW,3.5,-,N/A,,Overcast,290,2013-08-08 02:15:00
9:35 PM,75.9,72.0,87,29.94,10.0,NW,4.6,-,N/A,,Overcast,310,2013-08-08 02:35:00
9:55 PM,74.8,71.8,90,29.93,10.0,NNW,6.9,-,N/A,,Scattered Clouds,340,2013-08-08 02:55:00
10:15 PM,75.4,70.2,84,29.94,10.0,North,6.9,-,N/A,,Scattered Clouds,350,2013-08-08 03:15:00
10:35 PM,75.4,69.8,83,29.94,10.0,North,6.9,-,N/A,,Mostly Cloudy,350,2013-08-08 03:35:00
10:55 PM,75.2,69.1,81,29.94,10.0,North,8.1,-,N/A,,Overcast,360,2013-08-08 03:55:00
11:15 PM,74.5,68.9,83,29.94,10.0,North,4.6,-,N/A,,Mostly Cloudy,10,2013-08-08 04:15:00
11:35 PM,73.4,68.4,84,29.95,10.0,North,4.6,-,N/A,,Scattered Clouds,10,2013-08-08 04:35:00
11:55 PM,73.2,68.4,85,29.96,10.0,Calm,Calm,-,N/A,,Mostly Cloudy,0,2013-08-08 04:55:00